Regional Weather Roundup
Issued by NWS

Home | Current Version | Previous Version | Text Only | Print | Product List | Glossary On
Versions: 1 2 3 4 5 6 7 8 9 10 11 12 13 14 15 16 17 18 19 20 21 22 23 24 25 26 27
000
ASUS44 KBMX 180410
RWRAL

ALABAMA REGIONAL WEATHER ROUNDUP
NATIONAL WEATHER SERVICE BIRMINGHAM AL
1000 PM CST FRI NOV 17 2017

NOTE: "FAIR" INDICATES FEW OR NO CLOUDS BELOW 12,000 FEET
WITH NO SIGNIFICANT WEATHER AND/OR OBSTRUCTIONS TO VISIBILITY.

THE REMARK "TC" DENOTES TEMPERATURE IN DEGREES CELSIUS.

ALZ001>011-014-016>018-020-180500-
NORTH ALABAMA

CITY           SKY/WX    TMP DP  RH WIND       PRES   REMARKS
MUSCLE SHOALS  PTCLDY    64  48  56 S12G21    29.95F
HUNTSVILLE     PTCLDY    57  39  51 S10       29.99S
DECATUR        CLOUDY    58  41  53 S15       29.99S
HALEYVILLE     FAIR      57  51  80 S9        29.99F
GADSDEN        CLOUDY    43  43 100 CALM      30.05S
$$

ALZ012-013-022-023-030>036-040>044-180500-
WEST CENTRAL ALABAMA

CITY           SKY/WX    TMP DP  RH WIND       PRES   REMARKS
TUSCALOOSA     MOCLDY    61  51  70 SE5       30.01S
DEMOPOLIS        N/A     61  56  83 S5        30.00F
$$

ALZ015-024>026-033>036-041>044-180500-
CENTRAL ALABAMA

CITY           SKY/WX    TMP DP  RH WIND       PRES   REMARKS
BIRMINGHAM     CLOUDY    60  41  49 S5        30.05S
MONTGOMERY     PTCLDY    55  45  68 SE7       30.05F
SHELBY CO ARPT CLOUDY    57  45  64 SE3       30.04S
MAXWELL AFB    PTCLDY    54  46  75 SE7       30.03F
GREENVILLE     FAIR      56  48  74 S3        30.05F
SELMA          FAIR      54  48  82 SE5       30.03S
PRATTVILLE     FAIR      48  47  96 CALM      30.04F
BESSEMER       FAIR      56  45  66 SE8       30.03F
TALLADEGA      FAIR      46  41  82 CALM      30.05F
PELL CITY      CLEAR     43  43 100 CALM      30.05S
MARION         FAIR      56  52  86 SE3       30.02S
SYLACAUGA      FAIR      49  45  86 CALM      30.05S
$$

ALZ019-021-028-029-037-038-045>048-180500-
EAST CENTRAL ALABAMA

CITY           SKY/WX    TMP DP  RH WIND       PRES   REMARKS
ANNISTON       CLOUDY    45  40  82 CALM      30.05F
ALEXANDER CITY CLOUDY    43  41  93 CALM      30.06F
AUBURN         CLEAR     53  40  61 SE5       30.08F
$$

ALZ051>064-180500-
SOUTHWEST ALABAMA

CITY           SKY/WX    TMP DP  RH WIND       PRES   REMARKS
MOBILE         PTCLDY    62  60  93 SE5       30.05F
BROOKLEY FIELD PTCLDY    66  64  93 SE5       30.06S
EVERGREEN      CLOUDY    56  54  93 CALM      30.06F
$$

ALZ049-050-065>069-180500-
SOUTHEAST ALABAMA

CITY           SKY/WX    TMP DP  RH WIND       PRES   REMARKS
DOTHAN         CLEAR     47  45  93 CALM      30.10F
OZARK          CLEAR     51  47  86 CALM      30.07F
TROY           CLEAR     49  47  93 CALM      30.08F
EUFAULA        FAIR      43  42  97 CALM      30.08S
$$




USA.gov is the U.S. government's official web portal to all federal, state and local government web resources and services.